Content
SEND FEEDBACK

Daily
Averages
Monthly
Summary
Canada

VANCOUVER, BRITISH COLUMBIA


Home > North America > Canada > British Columbia
Elevation: 7 feet     Latitude: 49 11N     Longitude: 123 10W

WEATHER
 
SELECT A DAY
Number of Records: 249,332;   Date Range: 5/15/97 - 7/30/14
 
SHARE

PRINT THIS DATA

[ ← Previous Day ]
WEATHER ALMANAC - JANUARY 14, 2013
[ Next Day → ]
[ °C ]   °F
Weather ElementAverageHighLow
Temperature35.6 °F35.6 °F (12:35 am)35.6 °F (12:35 am)
Dewpoint31.7 °F33.8 °F (5:35 pm)28.4 °F (12:55 am)
Humidity85.9 %93 % (5:35 pm)75 % (12:55 am)
Barometer30.49 in30.57 in (11:55 pm)30.45 in (4:55 am)
Wind Speed3.9 mph9.2 mph (7:55 am)
Weather ElementAverage
Visibility9.2 mi
Wind DirectionESE (116.1 °)

Weather ElementTotal
Precipitation---
Heating Degree Days29.4 (Base 65)
Averaged from 64 records on January 14, 2013
WEATHER CONDITIONS BREAKOUT
WIND DIRECTION BREAKOUT
WEATHER BY HOUR - JANUARY 14, 2013
[ °C ]   °F
Local TimeTemperatureDewpointHumidityBarometerVisibilityWind DirectionWind SpeedGust SpeedPrecipitationEventsConditions
12:35 AM35.6 °F30.2 °F81 %30.46 in10.0 miSSW (200°)4.6 mphOvercast
12:55 AM35.6 °F28.4 °F75 %30.47 in10.0 miCalmOvercast
1:15 AM35.6 °F28.4 °F75 %30.46 in10.0 miCalmOvercast
1:35 AM35.6 °F30.2 °F81 %30.46 in10.0 miCalmOvercast
1:55 AM35.6 °F30.2 °F81 %30.47 in10.0 miCalmOvercast
2:15 AM35.6 °F30.2 °F81 %30.47 in7.0 miCalmOvercast
2:35 AM35.6 °F30.2 °F81 %30.46 in10.0 miCalmOvercast
2:55 AM35.6 °F30.2 °F81 %30.46 in10.0 miCalmOvercast
3:15 AM35.6 °F28.4 °F75 %30.46 in10.0 miSouth (170°)3.5 mphOvercast
3:55 AM35.6 °F28.4 °F75 %30.46 in10.0 miSouth (180°)3.5 mphOvercast
4:15 AM35.6 °F28.4 °F75 %30.46 in10.0 miSouth (180°)3.5 mphOvercast
4:35 AM35.6 °F28.4 °F75 %30.46 in10.0 miSSE (160°)3.5 mphOvercast
4:55 AM35.6 °F28.4 °F75 %30.45 in10.0 miSouth (170°)3.5 mphOvercast
5:15 AM35.6 °F28.4 °F75 %30.45 in10.0 miSouth (170°)4.6 mphOvercast
5:35 AM35.6 °F28.4 °F75 %30.46 in10.0 miSSE (160°)3.5 mphOvercast
5:55 AM35.6 °F28.4 °F75 %30.46 in10.0 miSSE (160°)3.5 mphOvercast
6:15 AM35.6 °F30.2 °F81 %30.45 in10.0 miCalmOvercast
6:55 AM35.6 °F30.2 °F81 %30.45 in10.0 miSouth (170°)5.8 mphOvercast
7:15 AM35.6 °F30.2 °F81 %30.45 in10.0 miSouth (170°)5.8 mphOvercast
7:35 AM35.6 °F30.2 °F81 %30.45 in10.0 miSouth (170°)4.6 mphOvercast
7:55 AM35.6 °F32.0 °F87 %30.46 in10.0 miSouth (180°)9.2 mphOvercast
8:15 AM35.6 °F32.0 °F87 %30.47 in10.0 miSouth (180°)6.9 mphOvercast
8:35 AM35.6 °F32.0 °F87 %30.47 in10.0 miSouth (190°)6.9 mphOvercast
8:55 AM35.6 °F32.0 °F87 %30.47 in7.0 miSouth (180°)6.9 mphMostly Cloudy
9:15 AM35.6 °F32.0 °F87 %30.47 in9.0 miSouth (180°)5.8 mphOvercast
9:35 AM35.6 °F32.0 °F87 %30.47 in10.0 miSouth (180°)6.9 mphOvercast
9:55 AM35.6 °F32.0 °F87 %30.47 in10.0 miSouth (190°)8.1 mphOvercast
10:15 AM35.6 °F32.0 °F87 %30.47 in8.0 miSouth (190°)9.2 mphOvercast
10:35 AM35.6 °F32.0 °F87 %30.47 in10.0 miSouth (180°)6.9 mphOvercast
11:15 AM35.6 °F32.0 °F87 %30.47 in10.0 miSouth (190°)5.8 mphOvercast
11:35 AM35.6 °F32.0 °F87 %30.48 in9.0 miSouth (190°)4.6 mphOvercast
11:55 AM35.6 °F32.0 °F87 %30.48 in7.0 miSouth (180°)6.9 mphOvercast
12:15 PM35.6 °F32.0 °F87 %30.47 in6.0 miSouth (180°)8.1 mphOvercast
12:35 PM35.6 °F32.0 °F87 %30.48 in8.0 miSouth (190°)5.8 mphMostly Cloudy
1:15 PM35.6 °F32.0 °F87 %30.47 in8.0 miSouth (180°)8.1 mphMostly Cloudy
1:35 PM35.6 °F32.0 °F87 %30.47 in9.0 miSouth (190°)8.1 mphMostly Cloudy
1:55 PM35.6 °F32.0 °F87 %30.48 in6.0 miSouth (170°)5.8 mphScattered Clouds
2:35 PM35.6 °F32.0 °F87 %30.48 in6.0 miSouth (190°)5.8 mphRainLight Rain
2:55 PM35.6 °F32.0 °F87 %30.49 in5.0 miSouth (190°)8.1 mphOvercast
3:15 PM35.6 °F32.0 °F87 %30.49 in9.0 miSouth (190°)9.2 mphOvercast
3:35 PM35.6 °F32.0 °F87 %30.48 in7.0 miSouth (190°)9.2 mphOvercast
3:55 PM35.6 °F32.0 °F87 %30.49 in10.0 miSouth (190°)6.9 mphOvercast
4:15 PM35.6 °F32.0 °F87 %30.50 in10.0 miSouth (170°)4.6 mphMostly Cloudy
4:35 PM35.6 °F32.0 °F87 %30.50 in9.0 miSouth (180°)4.6 mphOvercast
4:55 PM35.6 °F32.0 °F87 %30.50 in7.0 miSouth (190°)6.9 mphMostly Cloudy
5:15 PM35.6 °F32.0 °F87 %30.50 in7.0 miSouth (190°)6.9 mphScattered Clouds
5:35 PM35.6 °F33.8 °F93 %30.50 in7.0 miSouth (180°)4.6 mphMostly Cloudy
6:15 PM35.6 °F33.8 °F93 %30.52 in10.0 miSSW (200°)4.6 mphMostly Cloudy
6:35 PM35.6 °F33.8 °F93 %30.51 in10.0 miSouth (190°)3.5 mphOvercast
6:55 PM35.6 °F33.8 °F93 %30.52 in10.0 miCalmOvercast
7:15 PM35.6 °F33.8 °F93 %30.53 in10.0 miNorthOvercast
7:35 PM35.6 °F33.8 °F93 %30.53 in10.0 miCalmMostly Cloudy
7:55 PM35.6 °F33.8 °F93 %30.54 in10.0 miCalmOvercast
8:15 PM35.6 °F33.8 °F93 %30.54 in10.0 miCalmOvercast
8:35 PM35.6 °F33.8 °F93 %30.54 in10.0 miCalmOvercast
8:55 PM35.6 °F33.8 °F93 %30.55 in10.0 miCalmOvercast
9:15 PM35.6 °F33.8 °F93 %30.55 in10.0 miCalmOvercast
9:55 PM35.6 °F33.8 °F93 %30.55 in10.0 miCalmOvercast
10:15 PM35.6 °F33.8 °F93 %30.55 in10.0 miCalmOvercast
10:35 PM35.6 °F33.8 °F93 %30.55 in10.0 miCalmOvercast
10:55 PM35.6 °F33.8 °F93 %30.55 in9.0 miCalmOvercast
11:15 PM35.6 °F33.8 °F93 %30.56 in8.0 miCalmOvercast
11:35 PM35.6 °F33.8 °F93 %30.56 in8.0 miCalmOvercast
11:55 PM35.6 °F33.8 °F93 %30.57 in10.0 miCalmOvercast
Hourly data recorded from CZBB, located miles away from Vancouver, British Columbia







STORIES FROM OUR PARTNERS